User: anonymous
Location: Vancouver
(49.2500°N, 123.1330°W)
Time: 03:17:15
(UTC-07:00)
Language:

Transit 2A Rocket - Orbit

View from above orbital plane
View from above orbital plane
View from above satellite
View from above satellite

Ground track
Ground track

The orbit data is extracted from the following two-line orbital elements,

1 00047U 60007C   14273.46890775  .00000470  00000-0  13208-3 0  3236
2 00047 066.6674 333.4250 0226782 027.9101 333.3951 14.41223001834252
Epoch (UTC): 30 September 2014 11:15:13
Eccentricity: 0.0226782
inclination: 66.6674°
perigee height: 593 km
apogee height: 916 km
right ascension of ascending node: 333.4250°
argument of perigee: 27.9101°
revolutions per day: 14.41223001
mean anomaly at epoch: 333.3951°
orbit number at epoch: 83425

The dashed part of the orbit path shows where the satellite is in the earth's shadow,  

DLR